sat.trackr.live / text

‹ back to catalog

STARLINK-35259

NORAD 66197 · 2025-243W

PAYLOAD ACTIVE UNKNOWN

§ Identity

Operator
Country
US
Launch date
2025-10-26
Launch site
AFETR
Launch vehicle
Mass (kg)
RCS (m²)

Purposes: comms

External: N2YO · Heavens-Above · Gunter

§ Orbital elements

Epoch: 2026-05-24T17:16:28.541856Z

Period
94.11 min
Inclination
53.1575°
Eccentricity
0.0000756
Mean motion
15.30201167 rev/d
Perigee alt
474.7 km
Apogee alt
475.7 km
Semi-major
6,853.3 km
B*
7.3630e-4
RAAN
252.1487°
Arg perigee
34.1479°
Mean anomaly
325.9571°
Rev number
3,229

§ Raw data

STARLINK-352591 66197U 25243W   26144.71977479  .00021512  00000+0  73630-3 0  99952 66197  53.1575 252.1487 0000756  34.1479 325.9571 15.30201167 32296

JSON: /api/v1/satellites/66197 · /tle

For live sub-satellite position, see the globe view (requires WebGL).

§ Visibility from observer

Set your observer location to see the next 7 days of passes ≥ 10°. The values pass through the URL so the page stays shareable.

No JS? Fill the form by hand. The geolocation button needs JavaScript.